Weather History for Denver Centennial, CO

Change the Weather History Date:

Saturday, December 8, 2012

  Actual Average Record
Temperature  
Mean Temperature 36 °F -  
Max Temperature 52 °F 43 °F 66 °F (1996)
Min Temperature 20 °F 20 °F -3 °F (2013)
Degree Days  
Heating Degree Days 29    
Month to date heating degree days 172  
Moisture  
Dew Point 19 °F    
Average Humidity 57    
Maximum Humidity 96    
Minimum Humidity 17    
Precipitation  
Precipitation 0.04 in - - ()
Month to date precipitation 0.04  
Year to date precipitation 13.68  
Sea Level Pressure  
Sea Level Pressure 29.80 in    
Wind  
Wind Speed 8 mph (ESE)    
Max Wind Speed 23 mph    
Max Gust Speed 29 mph    
Visibility 6 miles    
Events Snow    
Averages and records for this station are not official NWS values.
T = Trace of Precipitation, MM = Missing Value Source: NWS Daily Summary

Daily Weather History Graph

Daily Weather History Graph

Search for Another Location

Airport:

Trip Planner

Search our weather history database for the weather conditions in past years. The results will help you decide how hot, cold, wet, or windy it might be!

Date:

Astronomy

Dec. 08, 2012 Rise Set
Actual Time 7:07 AM MST 4:35 PM MST
Civil Twilight 6:37 AM MST 5:05 PM MST
Nautical Twilight 6:04 AM MST 5:39 PM MST
Astronomical Twilight 5:31 AM MST 6:11 PM MST
Moon 1:36 AM MST (12/8) 1:05 PM MST (12/8)
Length of Visible Light 10h 27m
Length of Day
9h 27m
Waning Crescent, 27% of the Moon is Illuminated
Dec 8
Waning Crescent
Dec 13
New
Dec 19
First Quarter
Dec 28
Full
Jan 4
Last Quarter

Hourly Weather History & Observations

Time (MST) Temp. Windchill Dew Point Humidity Pressure Visibility Wind Dir Wind Speed Gust Speed Precip Events Conditions
12:53 AM 30.0 °F 19.5 °F 19.0 °F 64% 29.81 in 10.0 mi SSE 13.8 mph - N/A   Scattered Clouds
1:53 AM 28.9 °F 18.2 °F 19.0 °F 67% 29.82 in 10.0 mi South 13.8 mph - N/A   Scattered Clouds
2:53 AM 28.0 °F 24.2 °F 19.0 °F 69% 29.82 in 10.0 mi SSE 3.5 mph - N/A   Scattered Clouds
4:53 AM 24.1 °F - 17.1 °F 75% 29.82 in 10.0 mi Calm Calm - N/A   Scattered Clouds
5:53 AM 23.0 °F - 16.0 °F 74% 29.82 in 10.0 mi Calm Calm - N/A   Scattered Clouds
6:53 AM 21.0 °F 16.2 °F 16.0 °F 81% 29.82 in 10.0 mi South 3.5 mph - N/A   Scattered Clouds
7:53 AM 24.1 °F 17.0 °F 18.0 °F 77% 29.81 in 10.0 mi SSE 5.8 mph - N/A   Scattered Clouds
8:53 AM 34.0 °F 27.2 °F 19.9 °F 56% 29.75 in 10.0 mi SE 8.1 mph - N/A   Scattered Clouds
9:53 AM 42.1 °F 40.2 °F 19.0 °F 40% 29.72 in 10.0 mi Variable 3.5 mph - N/A   Scattered Clouds
10:53 AM 44.1 °F 40.8 °F 19.0 °F 37% 29.69 in 10.0 mi North 5.8 mph - N/A   Scattered Clouds
11:53 AM 46.9 °F - 16.0 °F 29% 29.64 in 10.0 mi NNE 5.8 mph - N/A   Scattered Clouds
12:53 PM 48.0 °F - 16.0 °F 28% 29.62 in 10.0 mi North 8.1 mph - N/A   Scattered Clouds
1:53 PM 48.9 °F - 15.1 °F 26% 29.60 in 10.0 mi Calm Calm - N/A   Scattered Clouds
3:53 PM 46.0 °F 39.9 °F 10.9 °F 24% 29.66 in 10.0 mi NW 13.8 mph 21.9 mph N/A   Mostly Cloudy
4:53 PM 37.9 °F 29.6 °F 19.9 °F 48% 29.75 in 10.0 mi ENE 13.8 mph 23.0 mph N/A   Mostly Cloudy
5:53 PM 32.0 °F 23.6 °F 21.9 °F 66% 29.82 in 10.0 mi ESE 10.4 mph - N/A   Mostly Cloudy
6:53 PM 32.0 °F 23.6 °F 19.0 °F 59% 29.87 in 10.0 mi ENE 10.4 mph 18.4 mph N/A   Overcast
7:53 PM 26.1 °F 13.6 °F 19.0 °F 75% 29.94 in 5.0 mi NE 16.1 mph 23.0 mph 0.00 in Snow Light Snow
8:04 PM 24.8 °F 12.4 °F 21.2 °F 86% 29.82 in 2.0 mi NNE 15.0 mph - 0.00 in Snow Light Snow
8:29 PM 23.0 °F 14.7 °F 21.2 °F 93% 29.82 in 1.8 mi East 6.9 mph - 0.00 in Snow Light Snow
8:35 PM 23.0 °F 13.9 °F 21.2 °F 93% 29.83 in 0.8 mi ESE 8.1 mph - 0.00 in Snow Light Snow
8:47 PM 23.0 °F 15.8 °F 21.2 °F 93% 29.83 in 0.8 mi East 5.8 mph - 0.00 in Snow Light Snow
8:51 PM 23.0 °F 14.7 °F 21.2 °F 93% 29.83 in 1.2 mi ESE 6.9 mph - 0.00 in Snow Light Snow
9:53 PM 21.9 °F 11.0 °F 19.0 °F 89% 29.91 in 3.0 mi ESE 10.4 mph - 0.00 in Snow Light Snow
10:33 PM 21.2 °F 10.9 °F 19.4 °F 93% 29.86 in 1.0 mi SE 9.2 mph - 0.00 in Snow Light Snow
10:44 PM 21.2 °F 10.9 °F 19.4 °F 93% 29.86 in 1.0 mi SE 9.2 mph - 0.00 in Snow Light Snow
10:53 PM 21.9 °F 12.5 °F 19.9 °F 92% 29.92 in 0.8 mi SE 8.1 mph - 0.00 in Snow Light Snow
11:14 PM 21.2 °F 12.6 °F 19.4 °F 93% 29.86 in 0.8 mi SSE 6.9 mph - 0.01 in Snow Light Snow
11:26 PM 21.2 °F 11.7 °F 19.4 °F 93% 29.86 in 1.0 mi East 8.1 mph - 0.01 in Snow Light Snow
11:53 PM 19.9 °F 12.1 °F 19.0 °F 96% 29.92 in 0.8 mi ESE 5.8 mph - 0.02 in Snow Light Snow